Weather History for KELM - October, 2011

Change the Weather History Date:

Sunday, October 16, 2011

  Actual Average Record
Temperature  
Mean Temperature 52 °F -  
Max Temperature 60 °F 64 °F 90 °F (1947)
Min Temperature 46 °F 39 °F 24 °F (2006)
Degree Days  
Heating Degree Days 12    
Growing Degree Days 2 (Base 50)    
Moisture  
Dew Point 42 °F    
Average Humidity 68    
Maximum Humidity 93    
Minimum Humidity 51    
Precipitation  
Precipitation 0.22 in - - ()
Sea Level Pressure  
Sea Level Pressure 29.73 in    
Wind  
Wind Speed 9 mph (WSW)    
Max Wind Speed 23 mph    
Max Gust Speed 36 mph    
Visibility 10 miles    
Events Rain    
Averages and records for this station are not official NWS values.
T = Trace of Precipitation, MM = Missing Value Source: NWS Daily Summary

Daily Weather History Graph

Daily Weather History Graph

Search for Another Location

Airport or City:

Trip Planner

Search our weather history database for the weather conditions in past years. The results will help you decide how hot, cold, wet, or windy it might be!

Date:

Astronomy

Oct. 16, 2011 Rise Set
Actual Time 7:21 AM EDT 6:24 PM EDT
Civil Twilight 6:52 AM EDT 6:52 PM EDT
Nautical Twilight 6:20 AM EDT 7:25 PM EDT
Astronomical Twilight 5:47 AM EDT 7:57 PM EDT
Moon 9:04 PM EDT (10/16) 11:40 AM EDT (10/16)
Length of Visible Light 12h 00m
Length of Day
11h 03m
Waning Gibbous, 82% of the Moon is Illuminated
Oct 16
Waning Gibbous
Oct 19
Last Quarter
Oct 26
New
Nov 2
First Quarter
Nov 10
Full

Hourly Weather History & Observations

Time (EDT) Temp. Windchill Dew Point Humidity Pressure Visibility Wind Dir Wind Speed Gust Speed Precip Events Conditions
12:53 AM 53.1 °F - 37.9 °F 57% 29.73 in 10.0 mi West 10.4 mph - N/A   Overcast
1:53 AM 52.0 °F - 39.0 °F 61% 29.75 in 10.0 mi WSW 8.1 mph - N/A   Overcast
2:53 AM 51.1 °F - 39.0 °F 63% 29.76 in 10.0 mi WSW 6.9 mph - N/A   Overcast
3:53 AM 50.0 °F - 39.0 °F 66% 29.77 in 10.0 mi SW 6.9 mph - N/A   Overcast
4:53 AM 51.1 °F - 39.0 °F 63% 29.78 in 10.0 mi WSW 5.8 mph - N/A   Overcast
5:53 AM 50.0 °F - 37.9 °F 63% 29.79 in 10.0 mi WSW 6.9 mph - N/A   Scattered Clouds
6:53 AM 46.4 °F 42.9 °F 37.4 °F 71% 29.79 in 10.0 mi WSW 6.9 mph - N/A   Clear
7:53 AM 48.0 °F - 37.9 °F 68% 29.81 in 10.0 mi SW 6.9 mph - N/A   Clear
8:53 AM 51.1 °F - 39.0 °F 63% 29.82 in 10.0 mi SW 4.6 mph - N/A   Clear
9:53 AM 55.0 °F - 41.0 °F 59% 29.80 in 10.0 mi WSW 13.8 mph - N/A   Partly Cloudy
10:53 AM 57.0 °F - 39.9 °F 53% 29.81 in 10.0 mi West 20.7 mph 33.4 mph N/A   Scattered Clouds
11:53 AM 59.0 °F - 41.0 °F 51% 29.80 in 10.0 mi WSW 18.4 mph 26.5 mph N/A   Clear
12:53 PM 59.0 °F - 41.0 °F 51% 29.78 in 10.0 mi West 23.0 mph 35.7 mph N/A   Partly Cloudy
1:53 PM 55.9 °F - 41.0 °F 57% 29.77 in 10.0 mi West 18.4 mph 31.1 mph N/A   Overcast
2:53 PM 55.9 °F - 41.0 °F 57% 29.71 in 10.0 mi SW 12.7 mph - N/A   Mostly Cloudy
3:53 PM 57.0 °F - 41.0 °F 55% 29.66 in 10.0 mi SW 10.4 mph - N/A   Overcast
4:53 PM 57.0 °F - 43.0 °F 59% 29.66 in 10.0 mi WSW 6.9 mph - 0.00 in Rain Light Rain
5:53 PM 53.1 °F - 46.9 °F 80% 29.64 in 10.0 mi WSW 6.9 mph - 0.02 in Rain Light Rain
6:53 PM 53.1 °F - 48.0 °F 83% 29.64 in 10.0 mi Calm Calm - 0.01 in   Overcast
7:53 PM 52.0 °F - 48.9 °F 89% 29.65 in 10.0 mi Calm Calm - 0.03 in   Overcast
8:53 PM 51.1 °F - 48.9 °F 92% 29.65 in 6.0 mi Calm Calm - 0.08 in Rain Light Rain
9:53 PM 51.1 °F - 48.9 °F 92% 29.64 in 6.0 mi WNW 4.6 mph - 0.04 in Rain Light Rain
10:53 PM 52.0 °F - 48.9 °F 89% 29.63 in 10.0 mi SW 6.9 mph - 0.04 in Rain Light Rain
11:53 PM 50.0 °F - 48.0 °F 93% 29.64 in 10.0 mi Calm Calm - 0.00 in   Mostly Cloudy